Location: Unspecified
(17.6330°N, 0.0000°E)
Time: 03:12:53
(UTC+00:00)

S-56A Canister/Altair - Pass Details

Date: 04 July 2019
Orbit: 632 x 2500 km, 38.9° (Epoch: 21 July)

Event Time Altitude Azimuth Distance (km) Brightness Sun altitude
Rises 08:43:21 0° 216° (SW) 5,660 11.6 42.8°
Reaches altitude 10° 08:46:55 10° 212° (SSW) 4,830 11.4 43.6°
Maximum altitude 09:00:54 58° 137° (SE) 2,804 11.4 46.8°
Drops below altitude 10° 09:15:01 10° 63° (ENE) 4,898 12.5 50.1°
Sets 09:18:37 0° 59° (ENE) 5,744 12.6 50.9°
